FW0671 Weather Reports


time (UTC)temp
F
wind
direction
speed
knots
gust
knots
rain 1hr
in
rain 24hr
in
rain mn
in
humidity
%
barometer
mb
20260505193010 48 117 2.6 8.7 0.00 0.00 0.00 97 1008.8
20260505191505 49 128 0.9 5.2 0.00 0.00 0.00 97 1009.3
20260505190006 50 121 1.7 9.6 0.00 0.00 0.00 97 1008.9
20260505184501 51 114 2.6 9.6 0.00 0.00 0.00 97 1008.0
20260505183100 51 132 5.2 11.3 0.00 0.00 0.00 97 1007.5
20260505181557 51 132 4.3 10.4 0.00 0.00 0.00 97 1007.2
20260505174555 52 101 4.3 15.6 0.00 0.00 0.00 97 1006.9
20260505173052 54 97 5.2 15.6 0.00 0.00 0.00 97 1007.2
20260505171548 55 137 1.7 7.0 0.00 0.00 0.00 97 1006.4
20260505170052 55 144 0.9 8.7 0.00 0.00 0.00 97 1005.8
20260505164557 55 155 3.5 9.6 0.00 0.00 0.00 97 1006.1
20260505163052 55 154 0.0 5.2 0.00 0.00 0.00 97 1006.3
20260505161553 55 154 0.9 7.0 0.00 0.00 0.00 97 1006.2
20260505153150 55 217 0.9 2.6 0.00 0.00 0.00 97 1005.0
20260505151547 55 215 0.0 2.6 0.00 0.00 0.00 97 1004.8
20260505124548 56 159 2.6 13.0 0.00 0.00 0.00 94 1005.6
20260505123040 56 125 3.5 9.6 0.00 0.00 0.00 92 1005.8
20260505121540 59 146 6.1 13.9 0.00 0.00 0.00 90 1005.7
20260505120047 63 101 3.5 7.0 0.00 0.00 0.00 89 1005.0
20260505114535 64 166 0.0 4.3 0.00 0.00 0.00 88 1004.7
20260505113035 64 171 0.0 2.6 0.00 0.00 0.00 87 1004.3
20260505111533 64 168 1.7 5.2 0.00 0.00 0.00 87 1004.3
20260505101526 65 222 0.9 8.7 0.00 0.00 0.00 92 1005.6
20260505100024 64 200 2.6 8.7 0.00 0.00 0.00 95 1006.0
20260505094528 62 222 0.0 10.4 0.00 0.00 0.00 96 1006.1
20260505093021 62 234 0.9 6.1 0.00 0.00 0.00 97 1006.3
20260505091518 61 283 0.0 9.6 0.00 0.00 0.00 98 1006.6
20260505090020 61 213 1.7 8.7 0.00 0.00 0.00 98 1006.8
20260505084526 60 223 1.7 9.6 0.00 0.00 0.00 98 1007.3
20260505083016 60 251 0.9 7.0 0.00 0.00 0.00 98 1007.7
20260505081514 60 205 1.7 6.1 0.00 0.00 0.00 98 1007.9
20260505080020 59 226 0.9 7.0 0.00 0.00 0.00 99 1008.1
20260505074516 59 249 0.9 8.7 0.00 0.00 0.00 98 1008.3
20260505073020 59 246 0.0 3.5 0.00 0.00 0.00 98 1008.5
20260505071514 58 200 0.0 1.7 0.00 0.00 0.00 98 1008.7
20260505070019 57 245 0.0 3.5 0.00 0.00 0.00 98 1008.9
20260505064511 57 244 0.9 6.1 0.00 0.00 0.00 98 1009.5
20260505063012 57 277 0.9 8.7 0.00 0.00 0.00 98 1009.3
20260505061516 56 253 0.9 6.1 0.00 0.00 0.00 98 1009.3
20260505060012 56 260 0.0 3.5 0.00 0.00 0.00 98 1008.9
20260505054512 55 254 0.9 4.3 0.00 0.00 0.00 97 1009.0
20260505053015 55 256 0.9 8.7 0.00 0.00 0.00 98 1009.0
20260505051514 0 0.0 0.0 0.00 0.00 0.00 1009.0
20260505041600 54 0.0 0.0 0.00 0.00 0.00 97 1009.3
20260505034556 54 286 0.0 4.3 0.00 0.00 0.00 96 1009.4
20260505033056 54 227 0.9 3.5 0.00 0.00 0.00 96 1009.2
20260505031604 54 228 0.0 3.5 0.00 0.00 0.00 96 1008.9
20260505024604 54 226 0.0 3.5 0.00 0.00 0.00 96 1009.1
20260505023054 54 225 0.0 7.8 0.00 0.00 0.00 96 1009.1
20260505021555 55 238 0.0 4.3 0.00 0.00 0.00 96 1009.2
20260505014607 54 159 0.0 7.0 0.00 0.00 0.00 95 1009.8
20260505013053 55 146 0.9 13.9 0.00 0.00 0.00 95 1010.7
20260505011603 55 134 7.8 16.5 0.00 0.00 0.00 94 1010.7
20260505004548 57 142 9.6 19.1 0.00 0.00 0.00 92 1010.5
20260505003046 57 242 0.0 1.7 0.00 0.00 0.00 92 1009.1
20260505001545 57 242 0.0 0.9 0.00 0.00 0.00 92 1009.3
20260504234548 58 242 0.0 0.0 0.00 0.00 0.00 92 1009.5
20260504233102 58 241 0.0 0.0 0.00 0.00 0.00 92 1009.8
20260504231544 58 241 0.0 1.7 0.00 0.00 0.00 92 1009.7
20260504224542 58 242 0.0 2.6 0.00 0.00 0.00 92 1009.8
20260504223055 58 241 0.0 3.5 0.00 0.00 0.00 92 1009.8
20260504221539 58 173 0.0 2.6 0.00 0.00 0.00 92 1010.1
20260504214537 58 172 0.0 1.7 0.00 0.00 0.00 91 1010.5
20260504213049 58 172 0.0 0.9 0.00 0.00 0.00 91 1010.7
20260504211536 59 172 0.0 0.0 0.00 0.00 0.00 90 1010.7
20260504204542 59 172 0.0 1.7 0.00 0.00 0.00 90 1011.0
20260504203030 59 172 0.0 0.0 0.00 0.00 0.00 90 1011.2
20260504201528 60 172 0.0 2.6 0.00 0.00 0.00 89 1011.3
20260504194529 60 172 0.0 0.0 0.00 0.00 0.00 88 1011.5